Flag for Colombia Weather past 2 weeks in San Juan de Pasto, Colombia

Now
63 °F

Partly sunny.


Feels Like: 63 °F
Forecast: 49 / 68 °F
Wind: 20 mph from South

Location: Latacunga Airport

Current Time: Sep 5, 2015 at 11:57:40 AM

Latest Report: Sep 5, 2015 at 11:00 AM


Visibility: N/A

Pressure: 30.48 "Hg (22.61 "Hg at 2535m altitude)

Humidity: 52%

Dew point: 45 °F

Location of San Juan de PastoLocation

Historic Weather in San Juan de Pasto — Graph

°F

San Juan de Pasto temperature yesterday

Maximum temperature yesterday: 64 °F (at 2:00 PM)
Minimum temperature yesterday: 43 °F (at 11:00 PM)
Average temperature yesterday: 54 °F

Past Weeks' High & Low Weather Summary

 TemperatureHumidityPressure
High72 °F (Aug 22, 1:00 PM)100% (Aug 21, 9:00 PM)30.51 "Hg (Aug 21, 9:00 PM)
Low34 °F (Sep 5, 6:00 AM)35% (Aug 22, 2:00 PM)30.30 "Hg (Aug 22, 4:00 PM)
Average54 °F84%30.42 "Hg
* Reported Aug 21 10:00 AM — Sep 5 10:00 AM, San Juan de Pasto, Weather by CustomWeather, © 2015

Note: Actual official high and low records may vary slightly from our data, if they occured in-between our weather recording intervals... More about our weather records

Advertising

San Juan de Pasto weather history for previous 24 hours

 ConditionsComfort  
Time TempWeatherWind HumidityBarometerVisibility
10:00 AM
Sat, Sep 5
55 °FBroken clouds.17 mph67%30.48 "HgN/A
9:00 AM52 °FPartly sunny.6 mph77%30.48 "HgN/A
8:00 AM46 °FPartly sunny.2 mph93%30.48 "HgN/A
7:00 AM37 °FPartly sunny.5 mph100%30.45 "HgN/A
6:00 AM34 °FPassing clouds.2 mph100%30.42 "HgN/A
5:00 AM36 °FPassing clouds.5 mph100%30.42 "HgN/A
4:00 AM36 °FPassing clouds.3 mph100%30.42 "HgN/A
3:00 AM37 °FPassing clouds.3 mph100%30.45 "HgN/A
2:00 AM37 °FPassing clouds.1 mph100%30.45 "HgN/A
1:00 AM41 °FPassing clouds.2 mph100%30.45 "HgN/A
12:00 AM43 °FPassing clouds.1 mph100%30.48 "HgN/A
11:00 PM
Fri, Sep 4
43 °FPassing clouds.2 mph100%30.48 "HgN/A
10:00 PM46 °FPassing clouds.5 mph93%30.48 "HgN/A
9:00 PM48 °FClear.8 mph94%30.45 "Hg10 mi
8:00 PM52 °FSmoke.12 mph94%30.42 "HgN/A
7:00 PM54 °FPassing clouds.12 mph77%30.42 "HgN/A
6:00 PM57 °FPassing clouds.12 mph63%30.39 "HgN/A
5:00 PM59 °FScattered clouds.16 mph59%30.36 "HgN/A
4:00 PM61 °FPartly sunny.22 mph59%30.36 "HgN/A
3:00 PM64 °FPartly sunny.20 mph56%30.39 "HgN/A
2:00 PM64 °FBroken clouds.14 mph52%30.39 "HgN/A
1:00 PM63 °FBroken clouds.13 mph56%30.45 "HgN/A
12:00 PM59 °FPartly sunny.18 mph72%30.45 "HgN/A
11:00 AM57 °FLight rain. Broken clouds.21 mph88%30.48 "HgN/A
Weather by CustomWeather, © 2015

See weather overviewHow to use our weather pages